Details for Qantas Freight at YMML




Go Back


Latest METAR
Local Time

YMML 240700Z 17006KT 9999 FEW020 SCT025 BKN048 13/09 Q1027

24/05/2018, 17:37:52

Description
Results
Qantas Freight Logo
Number of Pilots based at YMML
0 Pilots Based here
Number of Qantas Freight Flights Departed from YMML
0 Flights Departed
Number of Qantas Freight Flights Arrived at YMML
0 Flights Arrived
Number of Qantas Freight Schedules Departing from YMML
0 Schedules
Number of Qantas Freight Schedules Arriving at YMML
0 Schedules
Number of Qantas Freight Schedules Departing from YMML availible today
0 Schedules Today
Number of Qantas Freight Schedules Arriving at YMML availible today
0 Schedules Today
Average Landing Rate at YMML
-190 fpm
Qantas Freight Average Landing Rate at YMML
0 fpm
Total Fuel Purchased at YMML by Qantas Freight
0.00 kgs / 0.00 lbs

Pilots Based at YMML


Pilot ID
Pilot Name
Pilot Rank
No. of Flights
No. of Flying Hours
There are no pilots assigned to this hub!   Will you be the first?
Content